Location: ??????
(55.6500°N, 37.8000°E)
Time: 09:31:48
(UTC+00:00)

Cosmos 1733 - Pass Details

Date: 14 April 2024
Orbit: 457 x 471 km, 82.5° (Epoch: 20 May)

Event Time Altitude Azimuth Distance (km) Brightness Sun altitude
Rises 00:16:21 0° 349° (N) 2,560 7.3 -16.2°
Reaches altitude 10° 00:18:29 10° 352° (N) 1,674 6.3 -15.9°
Maximum altitude 00:22:08 71° 76° (ENE) 517 3.3 -15.6°
Drops below altitude 10° 00:25:45 10° 161° (SSE) 1,655 5.5 -15.2°
Enters shadow 00:26:04 - 162° (SSE) 1,788 5.7 -15.2°
